Probability
0 1 2 2 2 1 1 0 0 0 0 0 0 0 0 0 0 1 0 0 0 0 0 0 0 0 1 2 2 3 5 5 4 4 5 5 5 5
0 0 1 1 1 1 1 0 0 0 0 0 0 0 1 1 1 2 1 0 0 0 0 0 0 0 0 1 1 2 3 4 3 3 3 3 4 5
0 0 0 0 0 0 1 0 0 0 0 0 0 1 2 2 3 3 3 2 1 0 0 0 0 0 0 0 0 1 1 2 2 1 1 1 2 3
0 0 0 1 2 2 2 1 1 1 0 0 0 1 2 3 4 5 5 4 4 2 0 0 0 0 0 0 0 0 0 1 1 0 0 0 1 2
2 2 3 4 5 5 5 4 3 2 2 1 0 0 2 4 5 6 6 6 6 4 2 1 0 0 0 0 0 0 0 0 0 0 0 0 0 1
5 5 6 7 7 8 7 6 6 5 5 4 2 2 4 6 8 8 8 7 7 7 5 3 2 1 0 0 0 0 0 0 0 0 0 0 0 0
6 6 7 7 7 7 7 7 8 8 8 7 5 5 6 8 9 9 8 8 8 7 6 5 4 2 1 0 0 0 0 0 0 0 0 0 0 0
7 7 6 6 7 7 6 6 7 8 9 9 8 7 7 7 8 8 8 8 8 7 5 4 4 3 3 1 0 0 0 0 0 0 0 0 0 0
8 7 7 7 8 8 7 6 7 8 9 10 9 7 6 6 6 6 6 7 7 6 5 5 5 4 4 3 1 0 0 0 0 0 0 0 0 0
8 9 9 9 9 9 9 9 9 9 8 8 8 7 6 6 6 6 6 6 5 4 4 5 5 4 4 3 2 1 0 0 0 0 0 0 0 0
8 9 9 9 8 8 9 10 10 9 8 7 6 6 6 5 4 4 5 5 2 1 2 3 4 4 3 3 2 1 1 0 0 0 0 0 0 0
7 7 7 7 6 6 7 8 8 7 7 7 6 6 6 5 4 4 5 5 2 0 1 2 3 4 3 3 3 3 2 1 1 0 0 0 0 0
6 6 6 5 3 3 5 7 7 6 5 5 5 7 7 7 5 4 5 5 4 2 2 3 4 4 3 3 4 4 3 3 2 1 1 0 0 0
6 6 6 5 3 1 2 4 5 4 4 3 4 6 7 7 6 5 4 4 4 3 4 5 5 5 4 4 5 5 4 3 3 2 1 0 0 0
4 4 4 4 3 2 1 1 2 3 3 3 3 3 3 4 5 4 3 3 3 3 4 5 6 6 6 6 6 6 4 2 2 1 1 0 0 0
3 3 3 2 2 1 1 0 1 2 2 1 1 2 2 2 3 3 2 2 3 3 3 4 4 4 5 6 6 6 5 4 2 1 0 0 0 0
3 3 2 1 1 0 0 0 0 1 1 0 0 2 3 3 3 2 1 1 2 2 3 3 4 4 5 6 6 6 6 6 4 1 0 0 0 0
3 3 2 0 0 0 0 0 0 0 0 0 0 1 3 3 3 2 1 1 1 1 1 3 4 4 5 5 4 5 6 6 5 2 0 0 0 0
4 3 2 1 0 0 0 0 0 0 0 0 0 1 2 3 2 2 2 2 1 0 1 2 4 5 5 5 4 3 4 5 5 4 1 0 0 0
5 4 3 2 1 1 0 0 0 0 0 0 0 0 1 1 1 1 1 1 1 0 0 2 4 4 5 6 6 3 3 3 4 4 2 1 0 0
4 4 3 3 3 2 1 1 1 0 0 0 0 0 0 0 0 0 0 0 0 0 0 1 2 2 4 5 4 3 2 2 2 3 3 2 1 1
3 3 3 3 3 3 3 2 2 1 0 0 0 0 0 0 0 0 0 0 0 0 0 0 0 0 1 2 2 1 2 2 2 2 3 2 2 2
3 3 3 3 3 3 3 3 3 2 1 0 0 0 0 0 0 0 0 0 0 0 0 0 0 0 0 1 0 0 1 2 2 2 2 2 1 1
Wind_Speed
1 1 1 1 1 2 2 3 2 2 2 2 1 1 2 2 3 3 3 4 5 5 5 4 5 5 6 7 7 8 8 8 8 8 8 8 8 9
1 1 1 1 1 1 2 2 2 2 2 2 2 2 3 3 3 3 3 4 5 5 5 6 6 5 6 7 7 8 8 9 9 9 9 8 8 8
1 1 1 1 1 1 1 1 2 2 3 3 2 2 2 3 3 3 3 3 3 5 6 6 7 7 7 7 7 8 8 9 10 10 10 10 9 9
0 0 1 1 1 1 1 2 2 2 3 3 2 2 3 3 3 3 3 3 4 5 6 6 6 6 6 6 6 6 7 8 9 10 10 10 10 10
1 1 1 1 1 1 2 2 2 2 2 3 3 2 2 2 2 2 3 3 3 4 5 6 6 6 6 6 6 7 7 7 8 9 10 10 10 10
1 1 2 2 2 2 2 2 2 1 2 2 3 2 2 2 1 2 2 2 3 3 3 3 4 5 5 5 5 6 6 7 7 7 8 9 9 9
1 1 2 2 2 2 2 2 2 2 2 2 2 2 2 1 2 2 3 3 3 2 2 3 2 3 3 4 5 5 6 7 7 8 8 8 9 9
1 2 2 1 2 2 2 2 3 3 3 3 3 3 4 3 2 2 2 2 3 1 2 3 2 3 3 3 5 6 7 7 7 7 7 7 8 9
1 1 2 2 1 2 2 2 3 3 4 4 4 5 4 4 3 3 3 3 4 2 2 3 2 4 4 4 6 6 7 7 7 7 7 7 7 7
1 2 1 2 2 1 1 2 2 2 3 3 4 5 5 4 3 3 3 3 3 2 2 3 2 3 4 4 5 6 6 6 7 7 8 7 7 7
2 2 1 2 3 2 1 2 3 3 3 3 3 4 4 4 2 1 1 1 2 2 1 2 3 3 3 3 3 4 5 5 6 6 6 6 6 6
1 2 2 2 3 2 1 1 3 4 3 3 3 3 3 3 2 2 2 2 2 2 1 2 2 2 3 2 3 2 2 4 5 6 6 6 5 4
1 1 2 3 3 3 1 1 3 3 2 2 2 2 2 2 2 2 2 3 3 3 2 2 2 1 2 3 3 3 2 2 2 3 4 5 5 5
1 2 2 2 2 2 2 2 2 1 1 1 2 2 2 3 3 3 3 3 4 4 3 3 3 3 3 3 3 2 2 2 2 2 2 3 4 5
1 2 2 2 1 1 2 2 1 1 1 1 2 2 3 3 3 3 3 2 3 3 2 3 3 3 3 4 4 3 3 2 2 2 2 2 2 3
1 2 1 2 2 2 3 2 1 1 1 1 2 2 2 3 3 3 3 3 3 3 3 3 3 3 3 4 4 4 3 3 2 2 2 2 2 3
0 1 2 2 2 2 2 2 2 1 1 2 2 2 2 3 3 3 2 2 2 3 4 3 3 2 3 3 3 4 3 3 3 2 2 3 3 3
2 1 1 1 1 1 2 2 2 2 2 2 2 2 2 3 3 3 2 2 2 3 4 3 3 2 2 2 4 4 4 4 3 2 2 3 3 3
2 0 0 1 1 1 1 1 1 1 1 1 2 2 2 3 3 3 3 3 3 4 4 3 2 2 3 5 3 3 4 4 3 3 3 3 4 3
0 0 1 1 1 1 1 1 2 2 1 1 2 2 2 2 3 3 3 4 4 4 4 3 3 3 4 5 4 4 4 4 3 3 3 3 3 3
2 2 2 1 1 1 1 1 2 2 2 2 2 3 2 2 3 3 3 4 4 3 4 5 5 5 4 2 3 3 3 3 4 3 3 2 2 2
2 2 2 2 2 1 1 1 1 2 2 2 2 2 2 2 3 4 3 3 3 3 5 5 4 3 2 2 3 4 4 3 3 3 3 3 3 3
3 2 2 2 2 2 2 2 2 2 2 2 2 2 2 2 3 3 3 3 3 3 4 4 3 2 2 2 2 3 3 4 3 3 3 2 1 2
Wind_Direction
208 206 213 235 215 207 192 187 193 245 270 254 255 268 267 267 272 258 253 253 244 243 241 245 251 250 249 244 236 230 228 224 221 215 215 217 222 226
217 204 228 237 225 203 199 203 204 212 248 257 258 275 274 280 284 269 261 255 247 247 248 249 247 252 255 248 238 232 228 224 219 212 213 214 218 221
304 242 255 234 213 217 211 211 216 213 245 272 258 276 262 268 282 272 268 260 260 255 254 251 249 249 252 250 243 236 229 224 219 217 216 216 217 219
310 284 279 258 247 243 224 225 228 221 227 266 279 276 264 265 269 272 274 269 268 269 261 258 253 251 251 248 242 237 231 228 226 222 220 219 219 222
227 225 255 232 252 255 239 231 234 228 226 243 271 270 273 285 279 277 277 274 277 276 263 255 251 249 251 249 243 238 234 231 229 224 222 223 223 223
278 251 251 232 236 239 241 231 222 224 229 239 263 274 274 285 267 275 285 271 274 284 275 266 261 253 255 253 245 240 233 229 228 229 228 223 221 222
316 281 258 248 242 236 239 221 205 221 230 243 259 272 268 271 265 260 267 280 267 257 274 275 270 262 260 258 250 246 237 234 230 229 227 223 221 220
292 308 292 285 284 271 259 237 213 220 232 243 252 259 267 259 257 253 263 278 279 250 256 275 262 262 263 259 258 248 243 239 234 230 227 224 222 221
274 295 305 317 311 274 274 272 265 254 235 235 248 256 262 260 250 251 247 256 266 272 255 273 258 263 267 265 252 244 242 239 238 234 229 225 223 225
291 282 280 301 309 297 275 283 281 282 259 246 254 264 266 266 244 241 246 264 282 273 237 264 272 272 280 273 251 237 236 239 238 234 228 222 223 225
315 323 312 298 320 323 288 288 300 302 295 277 277 285 292 289 265 234 239 274 293 290 244 258 280 291 285 274 267 244 237 240 240 232 223 217 218 215
336 334 340 343 332 341 259 266 286 295 313 330 331 324 313 311 288 245 228 237 270 277 253 247 274 293 295 288 290 277 255 243 234 229 222 214 206 206
314 315 325 349 350 347 353 317 287 297 321 336 335 332 332 321 300 281 253 230 236 251 249 229 258 262 260 286 296 289 274 263 249 237 219 214 206 199
274 294 310 328 342 350 345 331 332 359 3 354 350 339 330 322 313 303 285 263 252 256 261 236 246 240 249 267 281 291 294 279 258 249 241 212 211 214
275 302 320 333 338 340 356 8 28 35 24 352 327 316 309 307 317 322 318 296 288 280 274 256 257 257 248 256 270 276 286 288 269 255 247 234 229 216
331 345 356 13 15 359 3 7 10 4 341 311 310 318 328 329 332 331 328 333 325 314 310 293 267 257 262 267 266 272 272 269 278 272 261 257 247 229
6 27 27 16 5 0 2 1 355 358 346 334 328 328 329 331 330 334 324 320 310 309 317 325 315 275 255 260 266 270 274 276 275 268 252 259 258 249
106 66 18 357 341 342 348 351 350 337 324 319 314 309 311 315 320 330 323 313 303 300 301 309 320 316 293 271 239 261 276 281 284 272 256 255 266 260
100 110 279 271 283 285 295 302 309 319 332 330 323 318 315 317 323 326 326 321 313 308 305 303 298 286 289 293 287 236 259 276 279 274 263 256 262 268
92 228 246 263 287 295 300 307 306 315 322 316 309 310 312 316 320 322 320 313 307 305 306 305 294 281 272 281 287 292 263 255 261 263 264 263 272 274
235 246 251 249 255 267 287 303 310 312 315 310 308 312 312 310 306 304 304 305 302 306 307 303 297 291 279 276 284 295 300 281 261 259 253 249 263 274
236 241 249 250 247 251 259 270 287 306 316 312 309 308 305 303 301 303 303 304 302 301 301 305 315 317 299 278 293 304 313 323 316 298 274 247 248 249
239 243 248 249 245 245 242 249 266 283 291 298 307 310 308 304 300 299 301 298 298 302 307 315 327 330 321 307 303 305 312 320 327 333 330 330 265 246